[Iaude] MPEC T200: 2023 TA8 [a=1.06,e=0.37,i=21.8,H=21.5]

mpec at marsden.cfa.harvard.edu mpec at marsden.cfa.harvard.edu
Thu Oct 12 19:27:48 EDT 2023


M.P.E.C. 2023-T200                             Issued 2023 October 12, 23:26 UT

     The Minor Planet Electronic Circulars contain information on unusual
         minor planets, routine data on comets and natural satellites,
         and occasional editorial announcements.  They are published
    on behalf of Division F of the International Astronomical Union by the
          Minor Planet Center, Smithsonian Astrophysical Observatory,
                          Cambridge, MA 02138, U.S.A.
			  
             Prepared using the Tamkin Foundation Computer Network

                              MPC at CFA.HARVARD.EDU
            URL https://www.minorplanetcenter.net/    ISSN 1523-6714

                                    2023 TA8                                    


Observations:
     K23T08A  C2023 07 29.55437201 39 52.785+18 44 36.95         23.53GVET200F52
     K23T08A  C2023 07 29.56712901 39 53.621+18 44 29.36         23.47GVET200F52
     K23T08A  C2023 07 29.57997401 39 54.446+18 44 20.75         23.46GVET200F52
     K23T08A  C2023 08 21.47859901 56 19.652+12 00 26.61         22.28GVET200F52
     K23T08A  C2023 08 21.49018701 56 19.720+12 00 08.89         22.10GVET200F52
     K23T08A  C2023 08 21.50186101 56 19.816+11 59 50.81         23.06GVET200F52
     K23T08A  C2023 08 21.51345901 56 19.861+11 59 33.15         21.74GVET200F52
     K23T08A  C2023 09 09.60200801 48 37.088+01 05 00.29         21.55GVET200F52
     K23T08A  C2023 09 09.60905901 48 36.592+01 04 42.22         21.31GVET200F52
     K23T08A  C2023 09 09.61610001 48 36.117+01 04 24.22         20.98GVET200F52
     K23T08A  C2023 09 21.49413101 31 16.966-08 08 31.22         21.86GVET200F51
     K23T08A  C2023 09 21.49477001 31 16.875-08 08 33.32         21.41GVET200F51
     K23T08A  C2023 09 21.50859601 31 15.267-08 09 13.60         21.74GVET200F51
     K23T08A  C2023 09 21.52306701 31 13.549-08 09 55.96         21.37GVET200F51
     K23T08A  C2023 09 21.52370901 31 13.459-08 09 58.22         21.42GVET200F51
     K23T08A  C2023 10 03.44445701 06 06.666-17 29 48.52         21.52GVET200F51
     K23T08A  C2023 10 03.44715101 06 06.280-17 29 55.06         21.78GVET200F51
     K23T08A* C2023 10 05.44413501 01 30.906-18 54 09.41         21.69wXET200F52
     K23T08A  C2023 10 05.45495801 01 29.326-18 54 36.10         21.47wXET200F52
     K23T08A  C2023 10 05.47662501 01 26.160-18 55 29.60         21.57wXET200F52
     K23T08A  C2023 10 08.39940000 54 42.153-20 50 50.22         21.54GVET200F51
     K23T08A  C2023 10 09.36702500 52 29.084-21 26 47.11         21.71wXET200F51
     K23T08A  C2023 10 09.37823100 52 27.460-21 27 11.83         21.31wXET200F51
     K23T08A  C2023 10 09.38944700 52 25.830-21 27 36.54         21.45wXET200F51
     K23T08A  C2023 10 09.40223700 52 23.970-21 28 04.64         21.56wXET200F51

Observer details:
F51 Pan-STARRS 1, Haleakala.  Observers J. Bulger, T. Lowe, P. Minguez, A.
    Schultz, I. Smith.  Measurers K. Chambers, T. de Boer, J. Fairlamb, H.
    Gao, M. Huber, C.-C. Lin, E. Magnier, Y. Ramanjooloo, R. Wainscoat, R.
    Weryk, J. Bulger, T. Lowe, P. Minguez, A. Schultz, I. Smith.  1.8-m
    Ritchey-Chretien + CCD.
F52 Pan-STARRS 2, Haleakala.  Observers J. Bulger, T. Lowe, P. Minguez, A.
    Schultz, I. Smith.  Measurers K. Chambers, T. de Boer, J. Fairlamb, H.
    Gao, M. Huber, C.-C. Lin, E. Magnier, Y. Ramanjooloo, R. Wainscoat, R.
    Weryk, J. Bulger, T. Lowe, P. Minguez, A. Schultz, I. Smith.  1.8-m
    Ritchey-Chretien + CCD.

Orbital elements:
2023 TA8                                                 Earth MOID = 0.2624 AU
Epoch 2023 Sept. 13.0 TT = JDT 2460200.5                MPC                     
M 156.40078              (2000.0)            P               Q                  
n   0.90563044     Peri.   22.28315     -0.97006704     +0.23533807             
a   1.0580399      Node   170.70156     -0.23760084     -0.97077163             
e   0.3703369      Incl.   21.75349     +0.05015763     -0.04710036             
P   1.09           H   21.54          G   0.15           U   4                  
Residuals in seconds of arc
230729 F52  0.0   0.2-    230909 F52  0.1+  0.1+    231005 F52  0.2-  0.0
230729 F52  0.1+  0.4+    230921 F51  0.1+  0.3+    231005 F52  0.2-  0.2-
230729 F52  0.0   0.1+    230921 F51  0.1-  0.1+    231008 F51  0.1-  0.4+
230821 F52  0.0   0.0     230921 F51  0.2+  0.3+    231009 F51  0.1+  0.1+
230821 F52  0.2-  0.0     230921 F51  0.1+  0.2+    231009 F51  0.0   0.1+
230821 F52  0.1+  0.2-    230921 F51  0.2-  0.2-    231009 F51  0.1-  0.1+
230821 F52  0.3-  0.0     231003 F51  0.2+  0.5-    231009 F51  0.2-  0.1+
230909 F52  0.1+  0.1-    231003 F51  0.3+  0.0
230909 F52  0.0   0.0     231005 F52  0.2-  0.0

Ephemeris:
2023 TA8                 a,e,i = 1.06, 0.37, 22                  q = 0.6662
Date    TT    R. A. (2000) Decl.     Delta      r    Elong.  Phase     V
2023 09 12    01 45 54.6 -00 39 53   0.4924  1.4308   143.0    25.1    21.9
...
2023 09 27    01 20 21.9 -12 35 00   0.4667  1.4461   158.1    15.0    21.5
...
2023 10 05    01 02 32.5 -18 35 33   0.4764  1.4494   156.4    16.0    21.6
...
2023 10 11    00 48 45.6 -22 24 33   0.4942  1.4498   150.7    19.7    21.8
2023 10 12    00 46 30.5 -22 58 21   0.4980  1.4496   149.5    20.4    21.8
2023 10 13    00 44 16.9 -23 30 50   0.5019  1.4495   148.4    21.2    21.9
...
2023 10 19    00 31 40.2 -26 17 28   0.5298  1.4473   141.1    25.6    22.1
...
2023 10 27    00 17 44.6 -28 47 24   0.5757  1.4415   131.5    31.1    22.5
...
2023 11 11    00 02 49.6 -30 32 46   0.6774  1.4216   115.7    38.9    23.0

A. U. Tomatic                (C) Copyright 2023 MPC           M.P.E.C. 2023-T200





More information about the Iaude mailing list